M0ZPG Weather Reports


Display with metric or nautical units.
time (UTC)temp
F
wind
direction
speed
MPH
gust
MPH
rain 1hr
in
rain 24hr
in
rain mn
in
humidity
%
barometer
mb
20260905041805 54 253 0.0 4.0 0.00 0.03 0.00 88 1020.1
20260905040905 54 214 0.0 3.0 0.00 0.03 0.00 88 1020.2
20260905040004 55 214 0.0 2.0 0.00 0.03 0.00 88 1020.2
20260905035403 55 214 0.0 3.0 0.00 0.03 0.00 88 1020.1
20260905034503 55 214 0.0 3.0 0.00 0.03 0.00 88 1019.9
20260905033605 55 214 0.0 2.0 0.00 0.03 0.00 88 1019.9
20260905032703 55 195 0.0 3.0 0.00 0.03 0.00 88 1019.8
20260905031805 55 162 0.0 2.0 0.00 0.03 0.00 87 1019.7
20260905030903 55 161 0.0 2.0 0.00 0.03 0.00 87 1019.6
20260905030214 55 177 0.0 4.0 0.00 0.03 0.00 87 1019.5
20260905025403 55 192 0.0 5.0 0.00 0.03 0.00 87 1019.4
20260905024505 55 197 0.0 3.0 0.00 0.03 0.00 87 1019.4
20260905023603 55 241 0.0 4.0 0.00 0.03 0.00 87 1019.3
20260905022703 55 240 0.0 3.0 0.00 0.03 0.00 87 1019.2
20260905021803 56 235 0.0 3.0 0.00 0.03 0.00 87 1019.2
20260905020905 56 215 0.0 1.0 0.00 0.03 0.00 87 1019.1
20260905020005 56 218 0.0 2.0 0.00 0.03 0.00 86 1019.1
20260905015406 56 218 0.0 2.0 0.00 0.03 0.00 86 1019.0
20260905014503 56 218 0.0 2.0 0.00 0.03 0.00 86 1019.0
20260905013605 56 216 0.0 3.0 0.00 0.03 0.00 86 1019.0
20260905012703 56 233 0.0 4.0 0.00 0.03 0.00 86 1018.9
20260905011805 56 235 0.0 2.0 0.00 0.03 0.00 85 1018.9
20260905010906 56 238 0.0 3.0 0.00 0.03 0.00 85 1018.9
20260905010004 56 238 0.0 2.0 0.00 0.03 0.00 85 1018.9
20260905005617 56 238 0.0 2.0 0.00 0.03 0.00 84 1018.9
20260905004503 56 238 0.0 3.0 0.00 0.03 0.00 84 1018.9
20260905003605 56 238 0.0 2.0 0.00 0.03 0.00 84 1018.9
20260905002703 56 237 0.0 3.0 0.00 0.03 0.00 84 1018.8
20260905001805 56 237 0.0 3.0 0.00 0.03 0.00 84 1018.8
20260905000905 56 237 0.0 3.0 0.00 0.03 0.00 83 1018.7
20260904235406 57 247 0.0 2.0 0.00 0.03 0.00 83 1018.6
20260904234507 57 247 0.0 2.0 0.00 0.03 0.00 83 1018.7
20260904233817 57 247 0.0 3.0 0.00 0.03 0.00 82 1018.6
20260904232706 57 250 0.0 4.0 0.00 0.03 0.00 82 1018.6
20260904231805 57 252 0.0 2.0 0.00 0.03 0.00 81 1018.6
20260904230906 58 252 0.0 4.0 0.00 0.03 0.00 81 1018.4
20260904230007 58 251 1.0 4.0 0.00 0.03 0.00 81 1018.3
20260904225618 58 250 0.0 2.0 0.00 0.03 0.03 81 1018.3
20260904224506 58 262 0.0 3.0 0.00 0.03 0.03 80 1018.2
20260904223605 58 262 0.0 3.0 0.00 0.03 0.03 80 1018.3
20260904222705 58 261 0.0 2.0 0.00 0.03 0.03 80 1018.2
20260904222017 58 233 1.0 4.0 0.00 0.03 0.03 79 1018.2
20260904220003 59 221 1.0 2.0 0.00 0.03 0.03 78 1018.1
20260904214505 60 243 0.0 3.0 0.00 0.03 0.03 77 1018.1
20260904213608 60 244 0.0 3.0 0.00 0.03 0.03 77 1018.0
20260904212705 60 241 0.0 3.0 0.00 0.03 0.03 77 1018.0
20260904211804 60 239 0.0 2.0 0.00 0.03 0.03 76 1017.9
20260904210904 61 237 0.0 2.0 0.00 0.03 0.03 76 1017.8
20260904210218 61 236 0.0 2.0 0.00 0.03 0.03 76 1017.7
20260904205403 61 234 0.0 3.0 0.00 0.03 0.03 76 1017.8
20260904204717 61 245 0.0 2.0 0.00 0.03 0.03 76 1017.7
20260904203605 62 251 1.0 3.0 0.00 0.03 0.03 75 1017.8
20260904202916 62 246 1.0 4.0 0.00 0.03 0.03 75 1017.7
20260904201805 62 240 0.0 2.0 0.00 0.03 0.03 74 1017.7
20260904200905 62 239 0.0 2.0 0.00 0.03 0.03 73 1017.6
20260904200005 63 238 0.0 2.0 0.00 0.03 0.03 72 1017.7
20260904195403 63 238 0.0 3.0 0.00 0.03 0.03 72 1017.6
20260904194505 63 240 1.0 5.0 0.00 0.03 0.03 71 1017.4
20260904193605 64 246 1.0 4.0 0.00 0.03 0.03 70 1017.2
20260904192705 64 231 1.0 5.0 0.00 0.03 0.03 70 1016.9
20260904191806 64 232 1.0 3.0 0.00 0.03 0.03 69 1016.8
20260904190003 65 249 1.0 7.0 0.00 0.03 0.03 67 1016.4
20260904185408 65 241 1.0 3.0 0.00 0.03 0.03 66 1016.2
20260904183815 65 249 1.0 4.0 0.00 0.03 0.03 64 1015.8
20260904182933 65 251 1.0 5.0 0.00 0.03 0.03 64 1015.8
20260904181805 65 268 1.0 4.0 0.00 0.03 0.03 64 1015.7
20260904180906 66 241 1.0 3.0 0.00 0.03 0.03 63 1015.6
20260904180008 66 245 1.0 7.0 0.00 0.03 0.03 63 1015.5
20260904175403 66 242 2.0 9.0 0.00 0.03 0.03 63 1015.4
20260904174507 66 238 1.0 6.0 0.00 0.03 0.03 63 1015.3
20260904173821 66 239 1.0 7.0 0.00 0.03 0.03 64 1015.3
20260904172708 66 252 2.0 6.0 0.00 0.03 0.03 63 1015.1
20260904171805 67 237 2.0 6.0 0.00 0.03 0.03 63 1015.1
20260904170905 67 239 1.0 7.0 0.00 0.03 0.03 62 1015.1
20260904170008 67 199 1.0 7.0 0.00 0.03 0.03 62 1015.2
20260904165617 67 230 2.0 7.0 0.00 0.03 0.03 62 1015.1
20260904164508 67 240 2.0 7.0 0.00 0.03 0.03 61 1015.1
20260904163817 67 244 1.0 6.0 0.00 0.03 0.03 61 1014.9
20260904162703 68 231 1.0 7.0 0.00 0.03 0.03 60 1014.8
20260904161805 68 264 1.0 7.0 0.00 0.03 0.03 60 1014.7
20260904160905 68 240 2.0 9.0 0.00 0.03 0.03 60 1014.4
20260904160004 68 207 1.0 5.0 0.00 0.03 0.03 60 1014.5
20260904155403 68 254 2.0 8.0 0.00 0.03 0.03 59 1014.4
20260904154503 69 235 2.0 8.0 0.00 0.03 0.03 59 1014.5
20260904153605 69 237 2.0 8.0 0.00 0.03 0.03 59 1014.5
20260904152914 69 247 2.0 6.0 0.00 0.03 0.03 59 1014.7
20260904151806 69 244 2.0 9.0 0.00 0.03 0.03 59 1014.5
20260904151114 69 245 2.0 8.0 0.00 0.03 0.03 59 1014.5
20260904150216 69 245 2.0 10.0 0.00 0.03 0.03 59 1014.3
20260904145618 69 249 2.0 7.0 0.00 0.03 0.03 59 1014.4
20260904144504 68 256 2.0 8.0 0.00 0.03 0.03 59 1014.2
20260904143605 68 269 2.0 6.0 0.00 0.03 0.03 59 1014.2
20260904142705 68 267 2.0 8.0 0.00 0.03 0.03 59 1014.1
20260904141805 69 254 2.0 7.0 0.00 0.03 0.03 60 1014.1
20260904140905 69 243 1.0 8.0 0.00 0.03 0.03 59 1014.1
20260904140005 69 252 2.0 7.0 0.00 0.03 0.03 60 1014.3
20260904135405 69 260 2.0 8.0 0.00 0.03 0.03 60 1014.3
20260904134503 69 246 2.0 10.0 0.00 0.03 0.03 60 1013.9
20260904133813 69 250 2.0 10.0 0.00 0.03 0.03 61 1014.0
20260904132916 70 271 2.0 10.0 0.00 0.03 0.03 63 1014.1
20260904131803 70 256 2.0 8.0 0.00 0.03 0.03 63 1013.9
20260904131115 70 280 2.0 6.0 0.00 0.03 0.03 62 1014.1
20260904130004 70 261 2.0 9.0 0.00 0.03 0.03 63 1013.9
20260904125405 70 249 2.0 7.0 0.00 0.03 0.03 64 1013.7
20260904124506 70 241 2.0 10.0 0.00 0.03 0.03 64 1013.2
20260904123603 70 257 2.0 10.0 0.00 0.03 0.03 65 1013.3
20260904122703 70 243 2.0 10.0 0.00 0.03 0.03 64 1013.3
20260904122013 70 245 2.0 7.0 0.00 0.03 0.03 65 1013.3
20260904120904 71 254 2.0 7.0 0.00 0.03 0.03 66 1013.1
20260904120218 70 249 2.0 7.0 0.00 0.03 0.03 66 1013.1
20260904115406 70 253 2.0 8.0 0.00 0.03 0.03 67 1012.7
20260904114505 70 253 2.0 9.0 0.00 0.03 0.03 67 1013.0
20260904113606 70 261 2.0 7.0 0.00 0.03 0.03 69 1012.7
20260904112705 70 302 2.0 5.0 0.00 0.03 0.03 69 1012.5
20260904111805 70 293 2.0 9.0 0.00 0.03 0.03 68 1012.4
20260904110904 70 271 2.0 9.0 0.00 0.03 0.03 69 1012.4
20260904110005 70 255 2.0 5.0 0.00 0.03 0.03 71 1012.3
20260904105403 70 256 3.0 9.0 0.00 0.03 0.03 73 1012.4
20260904104718 70 249 2.0 9.0 0.00 0.03 0.03 74 1012.6
20260904103603 70 245 2.0 9.0 0.00 0.03 0.03 75 1012.3
20260904102703 70 252 2.0 10.0 0.00 0.03 0.03 75 1012.2
20260904101805 69 247 2.0 9.0 0.00 0.03 0.03 78 1012.1
20260904100906 69 260 3.0 8.0 0.00 0.03 0.03 79 1012.0
20260904100004 68 260 2.0 8.0 0.00 0.03 0.03 82 1011.9
20260904095616 68 252 1.0 8.0 0.00 0.03 0.03 82 1012.0
20260904094503 68 246 2.0 7.0 0.00 0.03 0.03 84 1011.7
20260904093606 67 261 1.0 4.0 0.00 0.03 0.03 86 1011.7
20260904092705 67 252 1.0 7.0 0.00 0.03 0.03 88 1011.8
20260904091803 66 209 1.0 5.0 0.00 0.03 0.03 88 1011.9
20260904090905 66 252 1.0 7.0 0.00 0.03 0.03 89 1011.6
20260904090005 66 227 1.0 4.0 0.03 0.03 0.03 89 1011.7
20260904085617 66 229 1.0 7.0 0.03 0.03 0.03 89 1011.7
20260904084719 66 249 2.0 6.0 0.03 0.03 0.03 89 1011.5
20260904083605 67 202 1.0 7.0 0.03 0.03 0.03 90 1011.3
20260904082914 67 241 2.0 7.0 0.03 0.03 0.03 91 1011.4
20260904081803 67 253 3.0 9.0 0.03 0.03 0.03 89 1011.0
20260904081113 68 253 3.0 9.0 0.03 0.03 0.03 89 1010.7
20260904080003 69 243 3.0 11.0 0.00 0.00 0.00 87 1010.2
20260904075406 69 221 4.0 12.0 0.00 0.00 0.00 87 1010.1
20260904074504 70 234 4.0 14.0 0.00 0.00 0.00 84 1010.0
20260904073603 70 240 4.0 13.0 0.00 0.00 0.00 83 1009.9
20260904072703 70 230 4.0 14.0 0.00 0.00 0.00 83 1009.8
20260904071804 70 233 4.0 14.0 0.00 0.00 0.00 82 1009.7
20260904070905 70 225 3.0 12.0 0.00 0.00 0.00 82 1009.7
20260904070005 70 223 3.0 12.0 0.00 0.00 0.00 83 1009.6
20260904065403 70 225 4.0 12.0 0.00 0.00 0.00 83 1009.6
20260904064505 69 231 3.0 12.0 0.00 0.00 0.00 83 1009.6
20260904063606 69 217 4.0 12.0 0.00 0.00 0.00 83 1009.7
20260904062706 69 188 3.0 10.0 0.00 0.00 0.00 84 1009.7
20260904061806 69 223 3.0 12.0 0.00 0.00 0.00 84 1009.8
20260904060905 69 232 4.0 14.0 0.00 0.00 0.00 85 1010.2
20260904060003 68 209 4.0 16.0 0.00 0.00 0.00 85 1010.4
20260904055403 68 203 3.0 16.0 0.00 0.00 0.00 86 1010.2
20260904054503 68 247 4.0 14.0 0.00 0.00 0.00 86 1010.2
20260904053813 68 234 3.0 14.0 0.00 0.00 0.00 86 1010.1
20260904052703 68 225 3.0 10.0 0.00 0.00 0.00 86 1010.2
20260904051803 68 212 3.0 11.0 0.00 0.00 0.00 86 1009.7
20260904050903 69 205 4.0 10.0 0.00 0.00 0.00 86 1010.0
20260904050003 69 216 4.0 12.0 0.00 0.00 0.00 85 1010.2
20260904045409 69 210 3.0 12.0 0.00 0.00 0.00 85 1010.5
20260904044503 69 180 3.0 10.0 0.00 0.00 0.00 85 1010.7
20260904043605 69 218 3.0 12.0 0.00 0.00 0.00 85 1010.6
20260904042703 69 226 4.0 10.0 0.00 0.00 0.00 85 1010.7